Location: *
(46.3500°N, 10.9000°E)
Time: 05:09:31
(UTC+00:00)

Vanguard 1 - Visible Passes

Search period start: 14 April 2021 00:00
Search period end: 24 April 2021 00:00
Orbit: 648 x 3834 km, 34.3° (Epoch: 12 April)

Date Brightness Start Highest point End Pass type
(mag) Time Alt. Az. Time Alt. Az. Time Alt. Az.
14 Apr 13.0 19:26:55 10° W 19:48:09 45° SSW 20:01:21 19° SSE visible
14 Apr 13.3 21:56:30 10° W 22:09:24 20° SW 22:14:03 18° SW visible
15 Apr 13.1 19:48:26 10° W 20:08:44 40° SW 20:21:00 19° SSE visible
15 Apr 13.5 22:20:39 10° W 22:29:18 14° WSW 22:33:43 13° SW visible
16 Apr 13.2 20:10:10 10° W 20:29:09 34° SW 20:40:42 18° S visible
17 Apr 13.4 18:05:12 10° W 18:26:31 51° SSW 18:45:50 10° SE visible
17 Apr 13.3 20:32:13 10° W 20:49:25 28° SW 21:00:25 16° S visible
18 Apr 13.5 18:26:29 10° W 18:47:21 46° SSW 19:06:05 10° SE visible
18 Apr 13.5 20:54:51 10° W 21:09:32 22° SW 21:20:09 13° SSW visible
19 Apr 13.5 18:47:55 10° W 19:08:02 41° SSW 19:26:04 10° SSE visible
19 Apr 13.7 21:18:36 10° W 21:29:33 16° SW 21:39:13 10° SSW visible
20 Apr 13.6 19:09:32 10° W 19:28:35 35° SW 19:45:42 10° SSE visible
20 Apr 13.9 21:46:54 10° WSW 21:49:28 10° WSW 21:51:58 10° SW visible
21 Apr 13.6 19:31:29 10° W 19:48:59 29° SW 20:04:51 10° S visible
22 Apr 13.8 19:53:59 10° W 20:09:16 23° SW 20:23:20 10° S visible
23 Apr 13.9 20:17:31 10° W 20:29:26 17° SW 20:40:39 10° SSW visible
